Weather History for Ambler, AK

Change the Weather History Date:

Friday, March 1, 2013

  Actual Average Record
Temperature  
Mean Temperature -12 °F -  
Max Temperature -5 °F 8 °F 30 °F (1988)
Min Temperature -18 °F 0 °F -49 °F (1987)
Degree Days  
Heating Degree Days 76    
Moisture  
Dew Point -19 °F    
Average Humidity 65    
Maximum Humidity 71    
Minimum Humidity 58    
Precipitation  
Precipitation 0.00 in - - ()
Sea Level Pressure  
Sea Level Pressure 29.95 in    
Wind  
Wind Speed 1 mph (SE)    
Max Wind Speed 5 mph    
Max Gust Speed -    
Visibility 8 miles    
Events      
Averages and records for this station are not official NWS values.
T = Trace of Precipitation, MM = Missing Value Source: NWS Daily Summary

Daily Weather History Graph

Daily Weather History Graph

Search for Another Location

Airport:

Trip Planner

Search our weather history database for the weather conditions in past years. The results will help you decide how hot, cold, wet, or windy it might be!

Date:

Astronomy

Mar. 01, 2013 Rise Set
Actual Time 8:45 AM AKST 6:43 PM AKST
Civil Twilight 7:51 AM AKST 7:37 PM AKST
Nautical Twilight 6:49 AM AKST 8:39 PM AKST
Astronomical Twilight 5:45 AM AKST 9:44 PM AKST
Moon 12:24 AM AKST (3/1) 8:26 AM AKST (3/1)
Length of Visible Light 11h 46m
Length of Day
9h 57m
Waning Gibbous, 82% of the Moon is Illuminated
Mar 1
Waning Gibbous
Mar 4
Last Quarter
Mar 11
New
Mar 19
First Quarter
Mar 27
Full

Hourly Weather History & Observations

Time (AKST) Temp. Windchill Dew Point Humidity Pressure Visibility Wind Dir Wind Speed Gust Speed Precip Events Conditions
12:16 AM -9.4 °F -18.6 °F -18.4 °F 65% 29.71 in 3.0 mi ESE 3.5 mph - N/A   Mostly Cloudy
12:56 AM -9.4 °F - -18.4 °F 65% 29.73 in 3.0 mi Calm Calm - N/A   Mostly Cloudy
1:16 AM -11.2 °F - -18.4 °F 70% 29.74 in 4.0 mi Calm Calm - N/A   Scattered Clouds
1:36 AM -11.2 °F - -18.4 °F 70% 29.75 in 6.0 mi Calm Calm - N/A   Partly Cloudy
1:56 AM -11.2 °F - -20.2 °F 64% 29.75 in 4.0 mi Calm Calm - N/A   Clear
2:16 AM -11.2 °F -20.6 °F -18.4 °F 70% 29.76 in 4.0 mi East 3.5 mph - N/A   Mostly Cloudy
2:36 AM -11.2 °F -20.6 °F -18.4 °F 70% 29.77 in 5.0 mi ESE 3.5 mph - N/A   Mostly Cloudy
2:56 AM -11.2 °F - -20.2 °F 64% 29.78 in 5.0 mi Calm Calm - N/A   Mostly Cloudy
3:16 AM -11.2 °F - -18.4 °F 70% 29.79 in 5.0 mi Calm Calm - N/A   Overcast
3:36 AM -11.2 °F -20.6 °F -20.2 °F 64% 29.79 in 7.0 mi ESE 3.5 mph - N/A   Scattered Clouds
3:56 AM -11.2 °F -20.6 °F -20.2 °F 64% 29.80 in 6.0 mi ESE 3.5 mph - N/A   Clear
4:16 AM -11.2 °F - -20.2 °F 64% 29.81 in 9.0 mi Calm Calm - N/A   Clear
4:36 AM -13.0 °F - -23.8 °F 59% 29.81 in 7.0 mi Calm Calm - N/A   Clear
4:56 AM -13.0 °F - -20.2 °F 70% 29.82 in 8.0 mi Calm Calm - N/A   Clear
5:16 AM -13.0 °F - -20.2 °F 70% 29.83 in 10.0 mi Calm Calm - N/A   Clear
5:36 AM -13.0 °F - -20.2 °F 70% 29.84 in 9.0 mi Calm Calm - N/A   Clear
5:56 AM -13.0 °F - -20.2 °F 70% 29.85 in 10.0 mi Calm Calm - N/A   Partly Cloudy
6:16 AM -11.2 °F - -20.2 °F 64% 29.86 in 10.0 mi Calm Calm - N/A   Mostly Cloudy
6:36 AM -11.2 °F - -20.2 °F 64% 29.87 in 10.0 mi Calm Calm - N/A   Mostly Cloudy
6:56 AM -11.2 °F -20.6 °F -20.2 °F 64% 29.87 in 10.0 mi NE 3.5 mph - N/A   Scattered Clouds
7:16 AM -13.0 °F - -20.2 °F 70% 29.88 in 10.0 mi Calm Calm - N/A   Clear
7:36 AM -11.2 °F - -20.2 °F 64% 29.88 in 10.0 mi Calm Calm - N/A   Scattered Clouds
7:56 AM -11.2 °F - -20.2 °F 64% 29.89 in 10.0 mi Calm Calm - N/A   Overcast
8:16 AM -11.2 °F -20.6 °F -20.2 °F 64% 29.89 in 10.0 mi NE 3.5 mph - N/A   Scattered Clouds
8:36 AM -11.2 °F - -20.2 °F 64% 29.90 in 10.0 mi Calm Calm - N/A   Mostly Cloudy
8:56 AM -11.2 °F - -18.4 °F 70% 29.90 in 10.0 mi Calm Calm - N/A   Overcast
9:16 AM -11.2 °F - -18.4 °F 70% 29.90 in 10.0 mi Calm Calm - N/A   Overcast
9:36 AM -9.4 °F - -18.4 °F 65% 29.91 in 10.0 mi Calm Calm - N/A   Overcast
9:56 AM -9.4 °F - -18.4 °F 65% 29.92 in 10.0 mi Calm Calm - N/A   Mostly Cloudy
10:16 AM -9.4 °F - -16.6 °F 71% 29.93 in 10.0 mi Calm Calm - N/A   Mostly Cloudy
10:36 AM -7.6 °F -16.5 °F -14.8 °F 71% 29.93 in 3.0 mi East 3.5 mph - N/A   Overcast
10:56 AM -7.6 °F - -16.6 °F 65% 29.94 in 9.0 mi Calm Calm - N/A   Overcast
11:16 AM -7.6 °F - -16.6 °F 65% 29.95 in 10.0 mi Calm Calm - N/A   Overcast
11:36 AM -7.6 °F - -14.8 °F 71% 29.96 in 7.0 mi Calm Calm - N/A   Overcast
11:56 AM -7.6 °F - -14.8 °F 71% 29.96 in 7.0 mi Calm Calm - N/A   Overcast
12:16 PM -5.8 °F - -14.8 °F 65% 29.97 in 4.0 mi Calm Calm - N/A   Overcast
12:36 PM -5.8 °F - -14.8 °F 65% 29.97 in 3.0 mi Calm Calm - N/A   Overcast
12:56 PM -5.8 °F - -14.8 °F 65% 29.98 in 3.0 mi Calm Calm - N/A   Overcast
1:16 PM -5.8 °F - -14.8 °F 65% 29.99 in 2.5 mi Calm Calm - N/A   Overcast
1:36 PM -5.8 °F - -14.8 °F 65% 30.00 in 3.0 mi Calm Calm - N/A   Overcast
1:56 PM -5.8 °F - -14.8 °F 65% 30.00 in 5.0 mi Calm Calm - N/A   Overcast
2:16 PM -5.8 °F - -16.6 °F 60% 30.00 in 7.0 mi Calm Calm - N/A   Overcast
2:36 PM -5.8 °F -14.5 °F -14.8 °F 65% 30.00 in 5.0 mi South 3.5 mph - N/A   Overcast
2:56 PM -5.8 °F -14.5 °F -16.6 °F 60% 30.01 in 9.0 mi South 3.5 mph - N/A   Overcast
3:16 PM -5.8 °F -14.5 °F -14.8 °F 65% 30.01 in 7.0 mi SSE 3.5 mph - N/A   Overcast
3:36 PM -5.8 °F -16.7 °F -14.8 °F 65% 30.02 in 5.0 mi South 4.6 mph - N/A   Overcast
3:56 PM -5.8 °F -14.5 °F -14.8 °F 65% 30.02 in 4.0 mi SSE 3.5 mph - N/A   Overcast
4:16 PM -5.8 °F -14.5 °F -14.8 °F 65% 30.02 in 5.0 mi South 3.5 mph - N/A   Overcast
4:36 PM -5.8 °F -16.7 °F -14.8 °F 65% 30.03 in 9.0 mi South 4.6 mph - N/A   Overcast
4:56 PM -7.6 °F -16.5 °F -16.6 °F 65% 30.03 in 9.0 mi South 3.5 mph - N/A   Overcast
5:16 PM -7.6 °F - -16.6 °F 65% 30.03 in 9.0 mi Calm Calm - N/A   Overcast
5:36 PM -7.6 °F - -18.4 °F 59% 30.04 in 10.0 mi Calm Calm - N/A   Scattered Clouds
5:56 PM -9.4 °F - -20.2 °F 59% 30.05 in 10.0 mi Calm Calm - N/A   Mostly Cloudy
6:16 PM -9.4 °F - -18.4 °F 65% 30.05 in 10.0 mi Calm Calm - N/A   Overcast
6:36 PM -9.4 °F - -20.2 °F 59% 30.05 in 10.0 mi Calm Calm - N/A   Overcast
6:56 PM -11.2 °F - -20.2 °F 64% 30.05 in 10.0 mi Calm Calm - N/A   Overcast
7:16 PM -11.2 °F - -20.2 °F 64% 30.06 in 9.0 mi Calm Calm - N/A   Overcast
7:36 PM -11.2 °F - -20.2 °F 64% 30.06 in 9.0 mi Calm Calm - N/A   Overcast
7:56 PM -13.0 °F - -22.0 °F 64% 30.06 in 8.0 mi Calm Calm - N/A   Overcast
8:16 PM -14.8 °F - -23.8 °F 64% 30.07 in 9.0 mi Calm Calm - N/A   Mostly Cloudy
8:36 PM -14.8 °F - -23.8 °F 64% 30.07 in 10.0 mi Calm Calm - N/A   Partly Cloudy
8:56 PM -14.8 °F - -23.8 °F 64% 30.08 in 10.0 mi Calm Calm - N/A   Clear
9:16 PM -14.8 °F - -25.6 °F 58% 30.08 in 10.0 mi Calm Calm - N/A   Clear
9:36 PM -16.6 °F - -25.6 °F 64% 30.08 in 10.0 mi Calm Calm - N/A   Clear
9:56 PM -16.6 °F - -27.4 °F 58% 30.09 in 10.0 mi Calm Calm - N/A   Clear
10:16 PM -18.4 °F - -27.4 °F 63% 30.10 in 10.0 mi Calm Calm - N/A   Scattered Clouds
10:36 PM -18.4 °F - -25.6 °F 70% 30.10 in 10.0 mi Calm Calm - N/A   Partly Cloudy
10:56 PM -18.4 °F - -27.4 °F 63% 30.11 in 10.0 mi Calm Calm - N/A   Mostly Cloudy
11:16 PM -18.4 °F - -27.4 °F 63% 30.12 in 10.0 mi Calm Calm - N/A   Mostly Cloudy
11:36 PM -18.4 °F - -29.2 °F 58% 30.12 in 10.0 mi Calm Calm - N/A   Clear
11:56 PM -18.4 °F - -29.2 °F 58% 30.13 in 10.0 mi Calm Calm - N/A   Clear